FW8055 Weather Reports


time (UTC)temp
F
wind
direction
speed
knots
gust
knots
rain 1hr
in
rain 24hr
in
rain mn
in
humidity
%
barometer
mb
20260904131557 53 0 0.0 0.0 0.00 0.21 0.10 94 1010.7
20260904130053 53 0 0.0 0.0 0.00 0.21 0.10 94 1010.6
20260904124603 53 0 0.0 0.0 0.00 0.21 0.10 94 1010.6
20260904123057 53 0 0.0 0.0 0.00 0.21 0.10 94 1010.5
20260904121600 53 0 0.0 0.9 0.00 0.21 0.10 94 1010.4
20260904120108 53 0 0.0 1.7 0.00 0.21 0.10 94 1010.4
20260904114556 53 0 0.0 2.6 0.00 0.21 0.10 94 1010.4
20260904113055 53 0 0.0 3.5 0.00 0.21 0.10 93 1010.2
20260904111552 53 0 0.0 2.6 0.01 0.21 0.10 93 1010.1
20260904104556 54 211 0.0 2.6 0.02 0.21 0.10 94 1009.8
20260904103055 54 0 0.0 1.7 0.02 0.21 0.10 93 1009.9
20260904101555 54 248 0.9 2.6 0.01 0.20 0.09 93 1010.0
20260904100052 54 213 0.0 3.5 0.01 0.20 0.09 93 1009.8
20260904094602 54 242 0.9 4.3 0.01 0.19 0.08 92 1009.8
20260904093105 54 196 0.9 6.1 0.02 0.19 0.08 92 1009.9
20260904091554 54 233 0.9 5.2 0.03 0.19 0.08 92 1009.9
20260904090050 54 168 0.9 4.3 0.03 0.19 0.08 92 1009.9
20260904084558 54 0 0.0 3.5 0.03 0.18 0.07 92 1010.1
20260904083057 55 242 1.7 6.1 0.04 0.17 0.06 92 1010.0
20260904081551 55 0 0.9 3.5 0.05 0.16 0.05 92 1010.0
20260904080059 55 0 0.0 2.6 0.05 0.16 0.05 92 1009.8
20260904074556 55 0 0.0 0.9 0.04 0.16 0.04 91 1010.2
20260904073053 55 0 0.0 3.5 0.02 0.14 0.02 90 1010.3
20260904071553 55 0 0.9 7.0 0.00 0.12 0.00 88 1009.9
20260904070106 55 179 1.7 7.0 0.00 0.12 0.00 88 1009.6
20260904064555 55 213 1.7 5.2 0.00 0.12 0.12 87 1009.7
20260904063059 55 234 0.0 3.5 0.00 0.12 0.12 88 1009.7
20260904061553 55 221 0.0 2.6 0.01 0.12 0.12 89 1009.7
20260904054601 55 217 0.0 4.3 0.02 0.12 0.12 90 1009.9
20260904053056 55 0 0.0 2.6 0.02 0.12 0.12 91 1010.1
20260904051558 56 0 0.9 3.5 0.01 0.11 0.11 90 1010.2
20260904050059 56 231 1.7 7.0 0.01 0.11 0.11 88 1010.3
20260904044553 56 0 0.9 3.5 0.00 0.10 0.10 89 1010.4
20260904043054 56 213 0.9 2.6 0.00 0.10 0.10 90 1010.3
20260904041600 56 0 0.0 1.7 0.00 0.10 0.10 91 1010.2
20260904040104 56 0 0.0 2.6 0.00 0.10 0.10 91 1010.4
20260904034555 56 0 0.0 1.7 0.00 0.10 0.10 92 1010.4
20260904033101 56 0 0.0 1.7 0.00 0.10 0.10 91 1010.2
20260904031557 56 246 0.0 1.7 0.00 0.10 0.10 91 1010.1
20260904030058 56 250 0.0 2.6 0.00 0.10 0.10 91 1010.1
20260904024556 56 0 0.0 1.7 0.00 0.10 0.10 91 1010.0
20260904023104 56 0 0.0 2.6 0.01 0.10 0.10 90 1010.0
20260904021605 57 0 0.0 2.6 0.01 0.10 0.10 90 1010.1
20260904020055 57 217 0.0 2.6 0.01 0.10 0.10 91 1010.2
20260904014559 57 0 0.0 0.9 0.02 0.10 0.10 90 1010.3
20260904013054 57 0 0.0 1.7 0.01 0.09 0.09 90 1010.4
20260904011556 57 0 0.0 1.7 0.01 0.09 0.09 88 1010.4
20260904010052 58 0 0.0 2.6 0.01 0.09 0.09 85 1010.3
20260904004556 59 0 0.0 7.8 0.00 0.23 0.08 82 1010.3
20260904003053 59 0 0.0 1.7 0.00 0.23 0.08 83 1010.3
20260904001550 59 0 0.0 1.7 0.00 0.23 0.08 84 1010.2
20260904000123 58 0 0.0 2.6 0.00 0.23 0.08 85 1010.4
20260903234556 58 0 0.0 1.7 0.00 0.23 0.08 86 1010.2
20260903233056 58 233 0.0 3.5 0.00 0.23 0.08 87 1010.5
20260903231603 57 0 0.0 2.6 0.00 0.23 0.08 88 1010.6
20260903230059 57 0 0.0 2.6 0.02 0.23 0.08 88 1010.7
20260903224612 57 0 0.0 1.7 0.06 0.28 0.08 88 1010.9
20260903223100 57 0 0.9 3.5 0.07 0.28 0.08 87 1011.2
20260903221556 57 0 0.0 6.1 0.07 0.28 0.08 84 1011.2
20260903220058 59 0 0.9 10.4 0.05 0.26 0.06 79 1011.2
20260903214609 65 0 0.0 1.7 0.01 0.24 0.02 65 1010.3
20260903213113 66 0 0.9 3.5 0.00 0.23 0.01 56 1009.8
20260903211608 68 0 0.0 5.2 0.00 0.23 0.01 55 1009.9
20260903210124 68 0 0.0 7.8 0.00 0.23 0.01 57 1009.8
20260903204557 68 0 0.0 4.3 0.00 0.24 0.01 56 1010.1
20260903203113 66 0 0.9 9.6 0.00 0.24 0.01 61 1010.3
20260903201558 66 32 0.9 8.7 0.00 0.24 0.01 59 1010.5
20260903200056 66 81 0.9 6.1 0.00 0.24 0.01 60 1010.6
20260903194602 65 0 0.9 6.1 0.00 0.25 0.01 65 1010.7
20260903193101 64 0 0.9 5.2 0.00 0.25 0.01 66 1010.9
20260903191554 62 219 0.9 7.8 0.00 0.25 0.01 68 1011.3
20260903190054 62 0 0.0 7.0 0.00 0.25 0.01 72 1011.4
20260903184553 61 0 0.0 2.6 0.00 0.27 0.01 75 1011.4
20260903183057 60 0 0.0 3.5 0.00 0.27 0.01 77 1011.4
20260903181552 60 0 0.0 4.3 0.00 0.27 0.01 80 1011.4
20260903180100 59 0 0.0 3.5 0.00 0.27 0.01 79 1011.4
20260903174558 59 0 0.0 4.3 0.00 0.41 0.01 82 1011.3
20260903173052 58 223 0.0 2.6 0.00 0.41 0.01 84 1011.3
20260903171551 58 0 0.0 3.5 0.00 0.41 0.01 83 1011.2
20260903170058 58 0 0.0 3.5 0.00 0.41 0.01 84 1011.2
20260903164618 57 0 0.0 2.6 0.00 0.45 0.01 86 1011.3
20260903163058 56 0 0.0 2.6 0.00 0.45 0.01 88 1011.3
20260903161600 56 0 0.0 1.7 0.00 0.45 0.01 89 1011.5
20260903160121 56 237 0.0 5.2 0.00 0.45 0.01 89 1011.5
20260903154607 55 0 0.0 2.6 0.00 0.47 0.01 90 1011.6
20260903153055 55 0 0.0 2.6 0.00 0.47 0.01 91 1011.7
20260903151554 55 234 0.0 3.5 0.00 0.47 0.01 90 1011.6
20260903150053 54 207 0.0 2.6 0.00 0.47 0.01 91 1011.6
20260903144605 54 0 0.0 3.5 0.00 0.47 0.01 91 1011.6
20260903143109 54 0 0.0 5.2 0.00 0.47 0.01 92 1011.5
20260903141604 54 202 0.0 2.6 0.00 0.47 0.01 92 1011.4
20260903140058 54 227 0.0 3.5 0.00 0.47 0.01 92 1011.2
20260903134558 54 232 0.0 2.6 0.00 0.47 0.01 92 1011.2
20260903133050 54 229 0.0 2.6 0.00 0.47 0.01 92 1011.2